CZ-6A DEB, 54529

Orbit data source: Space-Track

CZ-6A DEB, 54529 is space debris in SSO originally from a launch on Fri, 11 Nov 2022 UTC launched from the Taiyaun Space Center, China (TSC). Debris objects in space refer to the collection of defunct objects orbiting the Earth. Examples of debris include non-operational satellites, rocket bodies, and fragments generated from explosions, collisions, or faulty payload assembly.

Loading next visibility...
Identifier
54529, 2022-151KH
Orbit
SSO
Country
Flag of CNCN / PRC
Related business
Manufacturer
SAST
Mission
Spacecraft
Bus & Motor
Unknown
Mass
Unknown
Launch date (UTC)
2022-11-11 (4 years ago)
Launch vehicle
Unknown
Launch site
Taiyaun Space Center, China (TSC)
Object type
Payload
Rocket body
Debris
Shape & HBR
Unknown shape, 0.4 m
Radar Cross Section
Medium (>0.1 m² and <1 m²)

Expand to show TLE details & history
Last TLE update: 2 days ago

TLE from 2 days ago
0 CZ-6A DEB
1 54529U 22151KH  26171.43342076  .00000096  00000-0  79433-4 0  9997
2 54529  98.8378 169.1761 0044660 322.3299  37.4746 14.09394077185134
Epoch: 2026-06-20T10:24Z
TLE epoch observation values (Epoch: 2026-06-20T10:24:07.553Z)
Latitude
-0.00006°
Longitude
104.49653°
Altitude
838.731 km
Speed
7.447 km/s
True Right ascension
11h 16m 42s
True Declination
0° 00' 00"
Sunlit
Object was in daylight at epoch
Visualization orbit readout
Latitude
Unknown
Longitude
Unknown
Altitude
Unknown
Speed
Unknown
Apparent Right ascension
Unknown
Apparent Declination
Unknown
Sunlit
N/A
Visualization observer readout
Local Sidereal Time
21:35:06
Azimuth
Unknown
Elevation
Unknown
Doppler factor
Unknown
Orbital elements
Apogee altitude
890.944 km
Perigee altitude
826.305 km
Semi-major axis
7,236.762 km
Eccentricity
0.00447
Inclination
98.8378°
RAAN
169.1761°
Arg. of periapsis
322.3299°
True anomaly
37.78735°
Mean anomaly
37.4746°
Eccentric anomaly
37.63083°
Mean motion
3.52555 °/min
Orbital period
102.11 mins
BSTAR
0.000079433
Loading maneuver chart data...
Computing Atmospheric mass density...
Loading historical data...
Loading historical data...
Loading historical data...
Loading historical data...
Loading historical data...
Loading historical data...
Loading historical data...

Documentation

Showing up to 5 results
|